CZ-6A DEB, 55003

Orbit data source: Space-Track

CZ-6A DEB, 55003 is space debris in SSO originally from a launch on Fri, 11 Nov 2022 UTC launched from the Taiyaun Space Center, China (TSC). Debris objects in space refer to the collection of defunct objects orbiting the Earth. Examples of debris include non-operational satellites, rocket bodies, and fragments generated from explosions, collisions, or faulty payload assembly.

Loading next visibility...
Identifier
55003, 2022-151UT
Orbit
SSO
Country
Flag of CNCN / PRC
Related business
Manufacturer
SAST
Mission
Spacecraft
Bus & Motor
Unknown
Mass
Unknown
Launch date (UTC)
2022-11-11 (4 years ago)
Launch vehicle
Unknown
Launch site
Taiyaun Space Center, China (TSC)
Object type
Payload
Rocket body
Debris
Shape & HBR
Unknown shape, 0.1 m
Radar Cross Section
Small (<0.1 m²)

Expand to show TLE details & history
Last TLE update: 2 days ago

TLE from 2 days ago
0 CZ-6A DEB
1 55003U 22151UT  26171.21422936  .00073353  00000-0  42824-2 0  9993
2 55003  98.6199 259.8080 0039470 198.5762 161.4027 15.10949167191027
Epoch: 2026-06-20T05:08Z
TLE epoch observation values (Epoch: 2026-06-20T05:08:29.416Z)
Latitude
0.00005°
Longitude
-85.74664°
Altitude
562.216 km
Speed
7.566 km/s
True Right ascension
17h 19m 13s
True Declination
0° 00' 00"
Sunlit
Object was in full shadow at epoch
Visualization orbit readout
Latitude
Unknown
Longitude
Unknown
Altitude
Unknown
Speed
Unknown
Apparent Right ascension
Unknown
Apparent Declination
Unknown
Sunlit
N/A
Visualization observer readout
Local Sidereal Time
21:27:05
Azimuth
Unknown
Elevation
Unknown
Doppler factor
Unknown
Orbital elements
Apogee altitude
557.605 km
Perigee altitude
503.07 km
Semi-major axis
6,908.475 km
Eccentricity
0.00395
Inclination
98.6199°
RAAN
259.808°
Arg. of periapsis
198.5762°
True anomaly
161.54627°
Mean anomaly
161.4027°
Eccentric anomaly
161.47455°
Mean motion
3.77981 °/min
Orbital period
95.24 mins
BSTAR
0.0042824
Loading maneuver chart data...
Computing Atmospheric mass density...
Loading historical data...
Loading historical data...
Loading historical data...
Loading historical data...
Loading historical data...
Loading historical data...
Loading historical data...

Documentation

Showing up to 5 results
|